Voltar ao catálogo

HAWK-6C

AtivoCiênciaVLEO
NORAD 55326·PAYLOAD·🇺🇸 United States

Lançado Jan 24, 2023 de Wallops Flight Facility

Loading…

Próximas Passagens (próximas 24 horas)

TLE

AtualizadoSource: Space-Track

Época: Sep 14, 2026, 03:34 UTC

1 55326U 23011C   26257.14924168  .00003883  00000-0  16683-3 0  9994
2 55326  40.4964 189.7379 0004365 282.1255  77.9066 15.23599909201423

Acompanhe HAWK-6C em tempo real com AllMySat

Download on the App Store